O3B FM14

Last updated on Fri Dec 29 2023 00:03:04 GMT+0000 (Coordinated Universal Time)

1 43233U 18024C 23361.67926445 -.00000024 00000+0 00000+0 0 9993 2 43233 0.0455 352.3449 0002872 278.6040 89.0165 5.00115903105804
UTC large
Height (km)
Speed (km/s)
/
Latitude / Longitude
Inclination (degrees)
Orbital Period (minutes)
Azimuth
Elevation
Range (km)
Doppler Factor

Next 0 passes for location: London (51.5072 / 0.1276)

Sorry there are no passes over London.